Regional Weather Roundup
Issued by NWS San Diego, CA

Home | Current Version | Previous Version | Text Only | Print | Product List | Glossary On
Versions: 1 2 3 4 5 6 7 8 9 10 11 12 13 14 15 16 17 18 19 20 21 22 23 24 25 26 27 28 29 30 31 32 33 34 35 36 37 38 39 40 41 42 43 44 45 46 47 48 49 50
000
ASUS46 KSGX 161910
RWRSGX

SAN DIEGO HOURLY WEATHER ROUNDUP
NATIONAL WEATHER SERVICE SAN DIEGO CA
1200 PM PDT TUE SEP 16 2014

NOTE: "FAIR" INDICATES FEW OR NO CLOUDS BELOW 12,000 FEET WITH NO
SIGNIFICANT WEATHER AND/OR OBSTRUCTIONS TO VISIBILITY.

CAZ042-043-060-061-PZZ750-775-162000-

GREATER SAN DIEGO AREA

CITY           SKY/WX    TMP DP  RH WIND       PRES   REMARKS
LINDBERGH FLD  MOSUNNY   87  65  47 NW10      29.75F
POINT LOMA       N/A     82  66  59 NW22        N/A
NATIONAL CITY    N/A     91  69  48 W1        29.73F HX  95
CHULA VISTA      N/A     91  72  53 W7        29.67F HX  99
IMPERIAL BEACH MOSUNNY   84  70  62 W10       29.74F
BROWN FIELD    SUNNY     96  65  35 NW7       29.75F HX  98
MIRAMAR MCAS   MOSUNNY   96  60  30 W10       29.75F HX  96
MONTGOMERY FLD SUNNY     97  62  31 W9        29.75F HX  98

$$

NORTH SAN DIEGO COUNTY

CITY           SKY/WX    TMP DP  RH WIND       PRES   REMARKS
CAMP PENDLETON MOSUNNY   98  59  27 SW9       29.72F HX  98
OCEANSIDE AP   SUNNY     91  63  39 W9        29.73F
OCEANSIDE HBR    N/A     77  70  78 W6        29.77F
VISTA            N/A     96  68  39 SW8       29.71F HX 101
CARLSBAD       SUNNY     85  64  49 W8        29.75F
DEL MAR          N/A     83  73  70 CALM      29.77F
FALLBROOK        N/A    101  55  21 S3        29.72F HX 100
ESCONDIDO        N/A    103  70  34 E3        29.74F HX 111
SAN MARCOS       N/A     94  68  42 NW10      29.72F HX  98
POWAY            N/A    103  67  31 CALM      29.73F HX 109

$$

EAST SAN DIEGO COUNTY

CITY           SKY/WX    TMP DP  RH WIND       PRES   REMARKS
RAMONA         MOSUNNY   98  64  32 E13G22    29.82F HX 100
SANTEE LAKES     N/A    100  69  35 E5        29.73F HX 106
LA MESA          N/A     98  70  40 NW3       29.68F HX 105
JAMUL            N/A    102  69  33 CALM      29.71F HX 109
DESCANSO N       N/A     88  63  43 E3        29.65F
MT. LAGUNA OBS   N/A     68  59  73 N18       29.73S
CAMPO            N/A     87  63  44 E22G30    29.89S

$$

ORANGE COUNTY AND THE LOS ANGELES BASIN

CITY           SKY/WX    TMP DP  RH WIND       PRES   REMARKS
JOHN WAYNE AP  MOSUNNY   92  62  36 SW7       29.75F
LAGUNA BEACH     N/A     85  70  61 S1        29.71F
LAKE FOREST FR   N/A     99  56  23 CALM      29.64F HX  97
SANTA ANA        N/A     96  68  39 CALM      29.70F HX 101
HUNTINGTON BCH   N/A     85  71  64 SW3       29.78F
LOS ALAMITOS   MOSUNNY   92  67  44 S12       29.75F HX  95
FULLERTON      SUNNY     97  58  27 S9        29.74F HX  96
LONG BEACH     SUNNY     86  65  49 S10       29.75F
L.A. AP        MOSUNNY   84  62  47 W12       29.76S
L.A. DOWNTOWN  SUNNY    102  61  25 CALM      29.73F HX 103

$$

THE INLAND EMPIRE

CITY           SKY/WX    TMP DP  RH WIND       PRES   REMARKS
CORONA         SUNNY    106  62  23 VRB3      29.76F HX 108
CHINO          MOSUNNY  104  62  25 E6        29.77F HX 106
ONTARIO        MOSUNNY  102  61  25 VRB6      29.78F HX 103
SAN BERNARDINO MOSUNNY   99  59  26 SE8       29.80F HX  98
RIVERSIDE AP   SUNNY    103  63  27 E9        29.77F HX 105
RIV CYN CREST    N/A    100  72  41 SE12      29.78F HX 109
MORENO VALLEY    N/A     96  66  36 SE5       29.04F HX  99
MARCH ARB      SUNNY     98  64  32 E8        29.83F HX 100
HORSETHIEF CYN   N/A    100  54  21 E5        29.75F HX  98
PERRIS           N/A     96  63  33 CALM      29.79F HX  97
MENIFEE          N/A    101  64  28 NE2       29.86F HX 104
HEMET EAST       N/A     98  55  23 CALM      29.75F HX  96
FRENCH VALLEY  FAIR     102  61  25 SE9G18    29.81F HX 103
TEMECULA         N/A    100  60  27 E7        29.76F HX 100

$$

SAN BERNARDINO AND RIVERSIDE COUNTY MOUNTAINS

CITY           SKY/WX    TMP DP  RH WIND       PRES   REMARKS
BIG BEAR AP    SUNNY     77  46  33 NE14G22   30.24F
ANGELUS OAKS     N/A     76  52  41 CALM      29.71F
PINE COVE        N/A     80  50  34 SE1       29.70F

$$

SOUTHERN DESERT INCLUDING THE COACHELLA VALLEY

CITY           SKY/WX    TMP DP  RH WIND       PRES   REMARKS
PALM SPRINGS   MOSUNNY   95  70  44 S5        29.84F HX 101
THOUSAND PALMS   N/A     95  71  45 SW2       29.78F HX 101
PALM DESERT      N/A     99  73  43 CALM      30.34S HX 108
THERMAL        SUNNY     97  70  41 SE8       29.79F HX 103
BLYTHE         MOSUNNY   94  67  41 VRB3      29.83F HX  97
IMPERIAL AP    SUNNY     97  65  34 VRB6      29.79F HX  99
EL CENTRO NAS  MOSUNNY   97  68  38 E10       29.79F HX 102
YUMA AZ        CLOUDY    97  62  31 E8        29.81F HX  98
MEXICALI       PTSUNNY   97  61  30 NE12      29.82  HX  97

$$

UPPER DESERT

CITY           SKY/WX    TMP DP  RH WIND       PRES   REMARKS
VICTORVILLE AP MOSUNNY   95  43  16 CALM      29.95F
HESPERIA         N/A     94  51  22 E5        29.87F
APPLE VALLEY     N/A     98  47  17 S3        30.00F
PALMDALE       SUNNY     96  47  18 NE8       29.93F
LANCASTER      SUNNY     94  47  20 VRB5      29.92F
EDWARDS AFB    MOSUNNY   94  48  20 VRB2      29.90F
DAGGETT        SUNNY     98  55  23 NE12      29.89F HX  96
29 PALMS N     SUNNY     93  61  34 E7        29.98F
NEEDLES        SUNNY     98  65  33 CALM      29.86F HX 101

$$

REGIONAL REPORTS

CITY           SKY/WX    TMP DP  RH WIND       PRES   REMARKS
SANTA BARBARA  SUNNY     78  64  61 SE9       29.76S
MT. WILSON       N/A     90  50  25 MISG        N/A
LAS VEGAS NV   MOSUNNY   96  53  23 SE6       29.88F
PHOENIX AZ     CLOUDY    88  66  48 S18G24    29.92F
TIJUANA          N/A    N/A N/A N/A MISG        N/A
ENSENADA NW      N/A     82  32  16 W6        29.71S

$$

OFFSHORE ISLANDS

CITY           SKY/WX    TMP DP  RH WIND       PRES   REMARKS
CATALINA ARPT  SUNNY     92  61  35 VRB3      29.86F
SAN CLEMENTE I MOSUNNY   78  64  61 NW12      29.80F
SAN NICOLAS IS MOSUNNY   80  59  48 NW25      29.80F

$$

MARINE AND OFFSHORE BUOY REPORTS

STATION/POSITION SKY/WX   TEMP    WIND        PRES    SWELL
                          AIR SEA DIR/SP/G            HT/PER/DIR
                          (F)     (DEG/KT/KT) (MB)    (FT/S/D)
TANNER BANKS               68 70  320/ 19/ 23 1008.9F   3/250/19
S CLEMENTE BASIN           73 74  310/ 12/ 14 1007.6F   5/220/19
SAN NICOLAS IS.               67                N/A     3/200/20
SO. S. ROSA ISLA           66 67  330/ 19/ 23 1009.1R   2/19
W. S. BARBARA CH           63 65  310/ 25/ 29 1008.4F   3/300/19
M. S. BARBARA CH           69 66  240/ 14/ 16 1007.9F
S. MONICA BASIN            73 74  320/  4/  4 1007.8F   3/210/19
S PEDRO CHANNEL               74                N/A     2/200/20
DANA POINT                    74                N/A     3/200/20
CMP PENDLETON NS              73                N/A     3/220/20
OCEANSIDE OFFSHR              74                N/A     3/200/20
TORREY PINES OTR              76                N/A     5/200/20
LA JOLLA 1                 78 67  330/  2/  3 1007.7S
MISSION BAY BUOY              75                N/A     3/220/20
SAN DIEGO BAY                 77              1007.6F

$$




USA.gov is the U.S. government's official web portal to all federal, state and local government web resources and services.